Regional Weather Roundup
Issued by NWS

Home | Current Version | Previous Version | Graphics & Text | Print | Product List | Glossary On
Versions: 1 2 3 4 5 6 7 8 9 10 11 12 13 14 15 16 17 18 19 20 21 22 23 24 25 26 27 28 29
000
ASUS45 KGTF 200310
RWRMT
MONTANA HOURLY WEATHER ROUNDUP
NATIONAL WEATHER SERVICE GREAT FALLS MT
900 PM MDT SUN APR 19 2015

NOTE: "FAIR" INDICATES FEW OR NO CLOUDS BELOW 12000 FEET WITH NO
SIGNIFICANT WEATHER AND/OR OBSTRUCTIONS TO VISIBILITY.

MTZ001>007-043-200400-
WEST OF THE DIVIDE

CITY           SKY/WX    TMP DP  RH WIND       PRES   REMARKS
KALISPELL      CLEAR     52  29  41 CALM      29.99F
MISSOULA       PTCLDY    54  26  34 NW7       30.01R
BUTTE          CLOUDY    46  23  40 SE7       30.05R
DEER LODGE       N/A     45  27  49 N7        30.07R
EUREKA           N/A     54  27  35 CALM        N/A
HAMILTON         N/A     54  28  37 NW3       30.00R
LIBBY            N/A     52  30  43 SE6       29.99R
$$

MTZ008-052>055-200400-
SOUTHWEST MONTANA

CITY           SKY/WX    TMP DP  RH WIND       PRES   REMARKS
BOZEMAN        PTCLDY    47  23  38 NW5       30.05S
DILLON         PTCLDY    46  24  42 NE10      30.01R
$$

MTZ009-010-012-014-046-048-049-054-200400-
EAST SLOPES AND CENTRAL MONTANA

CITY           SKY/WX    TMP DP  RH WIND       PRES   REMARKS
CUT BANK       CLEAR     41  19  41 E9        30.06S
GREAT FALLS    CLEAR     42  23  46 E6        30.07F
MALMSTROM AFB  CLEAR     40  26  56 S7        30.08F
HELENA         PTCLDY    48  25  40 N8        30.05R
$$

MTZ011-013-016-021-045-047-050-051-200400-
NORTH CENTRAL MONTANA

CITY           SKY/WX    TMP DP  RH WIND       PRES   REMARKS
HAVRE          CLEAR     43  19  38 NE6       30.08F
LEWISTOWN      CLEAR     40  19  43 E3        30.09S
CHINOOK          N/A     43  19  39 CALM      30.09S
FORT BENTON      N/A     46  19  34 E7        30.10R
$$

MTZ017>020-022>042-056>058-061-062-200400-
EASTERN PLAINS

CITY           SKY/WX    TMP DP  RH WIND       PRES   REMARKS
BAKER          PTCLDY    37  14  38 NW9       30.02R WCI  30
BILLINGS       MOCLDY    46  20  35 N5        30.09R
GLASGOW        PTCLDY    42  21  43 N9        30.06S
LIVINGSTON     PTCLDY    43  27  53 SE9       30.06S
MILES CITY     PTCLDY    43  17  35 NW10      30.06S
SIDNEY         CLEAR     37  16  41 W8        30.01S WCI  31
WOLF POINT     MOCLDY    43  20  39 NW10      30.04S
BIG TIMBER       N/A     43  23  45 CALM      30.10R
FORSYTH          N/A     45  18  33 N5        30.08S
PLENTYWOOD       N/A     36  12  38 N8        30.00S WCI  29
POPLAR           N/A     39  12  33 NW6       30.04R
$$

REGIONAL REPORTS...DAKOTAS

CITY           SKY/WX    TMP DP  RH WIND       PRES   REMARKS
WILLISTON      CLEAR     34  16  47 NW9       29.99S WCI  27
MINOT          CLOUDY    41  27  57 NW16      29.90S
DICKINSON      CLEAR     36  23  59 NW7       29.95S WCI  30
BEACH          FAIR      32  14  47 NW7       30.01S WCI  26
CROSBY         FAIR      30  18  59 NW8       29.98S WCI  23
WATFORD CITY   FAIR      36  19  51 CALM      29.97S
BISMARCK       CLOUDY    44  30  57 NW14G24   29.91S
GRAND FORKS    CLOUDY    39  32  76 N17       29.76S WCI  30
FARGO          CLOUDY    42  38  85 N10       29.74F
BUFFALO SD       N/A     38  16  40 NW14      29.94R WCI  30
RAPID CITY     MOCLDY    36  22  56 NW10      30.00R WCI  28
$$

REGIONAL REPORTS...WYOMING/IDAHO/WASHINGTON

CITY           SKY/WX    TMP DP  RH WIND       PRES   REMARKS
GILLETTE       CLEAR     32  18  56 NW9       30.05S WCI  24
SHERIDAN       PTCLDY    35  19  52 NW10      30.08R WCI  27
BUFFALO WY     PTCLDY    39  16  39 NW13      30.07R WCI  31
CODY           CLOUDY    43  19  39 W3G16     30.08R
YELLOWSTONE LA   N/A     36  19  50 N3        30.08R
IDAHO FALLS    CLOUDY    54  24  31 SW8       29.96S
SALMON         CLEAR     52  25  35 NE6       29.95R
BOISE          CLEAR     63  28  26 W6        29.94F
SPOKANE        PTCLDY    58  33  39 W8        29.99S
$$

REGIONAL REPORTS...ALBERTA

CITY           SKY/WX    TMP DP  RH WIND       PRES   REMARKS
EDMONTON       CLEAR     46  19  34 SE5       30.00F
CALGARY        PTCLDY    46  21  36 SE9       30.03S
MEDICINE HAT   CLEAR     48  19  32 N3        30.07F
$$

REGIONAL REPORTS...SASKATCHEWAN

CITY           SKY/WX    TMP DP  RH WIND       PRES   REMARKS
SWIFT CURRENT  MOCLDY    39  21  48 N7        30.05S
REGINA         PTCLDY    39  14  35 N10       30.01S
SASKATOON      PTCLDY    41  10  28 NE9       30.06S
$$



USA.gov is the U.S. government's official web portal to all federal, state and local government web resources and services.